This is the latest recevied weather packets stored in our database for station/object SP9TKN-1. If no packets are shown the sender has not sent any weather packets the latest 10 day(s).
| Time | Temp. | Humidity | Pressure | Rain* | Wind** | Luminosity | Snow |
|---|---|---|---|---|---|---|---|
| 1777260650 | 3.89° C | 57% | 1024.5 hPa | - | - | - | - |
| 1777259750 | 3.89° C | 57% | 1024.3 hPa | - | - | - | - |
| 1777258852 | 3.89° C | 56% | 1024.4 hPa | - | - | - | - |
| 1777257949 | 3.89° C | 56% | 1024.5 hPa | - | - | - | - |
| 1777257049 | 4.44° C | 56% | 1024.6 hPa | - | - | - | - |
| 1777255250 | 4.44° C | 54% | 1024.6 hPa | - | - | - | - |
| 1777254350 | 4.44° C | 54% | 1024.7 hPa | - | - | - | - |
| 1777253450 | 5° C | 53% | 1024.7 hPa | - | - | - | - |
| 1777251650 | 5.56° C | 51% | 1024.8 hPa | - | - | - | - |
| 1777250751 | 5.56° C | 50% | 1024.9 hPa | - | - | - | - |
| 1777249849 | 5.56° C | 50% | 1025 hPa | - | - | - | - |
| 1777248951 | 5.56° C | 49% | 1025 hPa | - | - | - | - |
| 1777247151 | 6.11° C | 47% | 1025 hPa | - | - | - | - |
| 1777245351 | 6.11° C | 46% | 1024.9 hPa | - | - | - | - |
| 1777244449 | 6.67° C | 45% | 1024.9 hPa | - | - | - | - |
| 1777243550 | 6.67° C | 43% | 1024.9 hPa | - | - | - | - |
| 1777242650 | 7.22° C | 42% | 1024.8 hPa | - | - | - | - |
| 1777241751 | 7.22° C | 42% | 1024.8 hPa | - | - | - | - |
| 1777240849 | 7.22° C | 41% | 1024.8 hPa | - | - | - | - |
| 1777239949 | 7.78° C | 40% | 1024.7 hPa | - | - | - | - |
| 1777239049 | 7.78° C | 39% | 1024.6 hPa | - | - | - | - |
| 1777238149 | 8.33° C | 38% | 1024.8 hPa | - | - | - | - |
| 1777237249 | 8.33° C | 37% | 1024.8 hPa | - | - | - | - |
| 1777236350 | 8.33° C | 36% | 1024.7 hPa | - | - | - | - |
| 1777235448 | 8.89° C | 34% | 1024.7 hPa | - | - | - | - |
* Rain since midnight (hover to see other rain measurements)
** Current wind speed in m/s (hover to see current wind gust speed)